QPF
0.00 0.01 0.00 0.00 0.00 0.00 0.00 0.00 0.00 0.01 0.02 0.05 0.07 0.06 0.06 0.09 0.18 0.24 0.16 0.08 0.06 0.06 0.06 0.06 0.05 0.06 0.07 0.08 0.07 0.07 0.08 0.08 0.09 0.10 0.13 0.16 0.17 0.17 0.15 0.14 0.11 0.12 0.12 0.12
0.00 0.00 0.00 0.00 0.00 0.00 0.01 0.01 0.01 0.01 0.05 0.09 0.09 0.07 0.08 0.07 0.09 0.12 0.11 0.07 0.07 0.06 0.05 0.06 0.05 0.04 0.04 0.05 0.06 0.05 0.06 0.08 0.07 0.06 0.08 0.11 0.12 0.14 0.12 0.14 0.14 0.14 0.14 0.14
0.00 0.00 0.00 0.00 0.01 0.02 0.02 0.01 0.01 0.02 0.06 0.09 0.11 0.08 0.08 0.07 0.06 0.06 0.08 0.07 0.08 0.10 0.09 0.08 0.10 0.08 0.05 0.05 0.06 0.06 0.07 0.09 0.08 0.08 0.08 0.11 0.10 0.10 0.10 0.12 0.15 0.14 0.15 0.16
0.01 0.01 0.01 0.01 0.01 0.02 0.02 0.02 0.02 0.03 0.06 0.08 0.11 0.10 0.08 0.06 0.06 0.07 0.08 0.08 0.08 0.10 0.11 0.11 0.11 0.12 0.10 0.08 0.07 0.08 0.12 0.14 0.12 0.11 0.12 0.13 0.12 0.10 0.10 0.10 0.12 0.14 0.15 0.15
0.02 0.01 0.01 0.02 0.02 0.02 0.02 0.05 0.04 0.05 0.09 0.11 0.09 0.07 0.05 0.05 0.06 0.10 0.12 0.10 0.10 0.10 0.10 0.11 0.11 0.11 0.11 0.11 0.12 0.11 0.13 0.14 0.13 0.14 0.15 0.15 0.12 0.11 0.11 0.12 0.13 0.13 0.13 0.14
0.02 0.02 0.02 0.02 0.01 0.02 0.02 0.06 0.05 0.04 0.07 0.11 0.08 0.07 0.06 0.05 0.05 0.06 0.08 0.09 0.09 0.11 0.08 0.08 0.08 0.07 0.08 0.10 0.12 0.14 0.12 0.10 0.08 0.09 0.12 0.15 0.15 0.14 0.15 0.15 0.15 0.16 0.15 0.15
0.03 0.02 0.03 0.01 0.00 0.01 0.03 0.06 0.05 0.06 0.08 0.13 0.13 0.10 0.08 0.07 0.06 0.06 0.06 0.09 0.09 0.09 0.08 0.08 0.08 0.08 0.09 0.10 0.12 0.11 0.09 0.09 0.10 0.12 0.13 0.14 0.17 0.17 0.17 0.17 0.16 0.15 0.14 0.14
0.03 0.03 0.04 0.01 0.01 0.02 0.03 0.04 0.06 0.09 0.13 0.12 0.12 0.08 0.06 0.07 0.09 0.07 0.06 0.07 0.08 0.08 0.07 0.07 0.07 0.08 0.08 0.08 0.09 0.10 0.11 0.12 0.14 0.16 0.15 0.15 0.15 0.14 0.16 0.17 0.19 0.16 0.14 0.13
0.04 0.04 0.04 0.02 0.02 0.02 0.03 0.07 0.09 0.08 0.08 0.08 0.09 0.07 0.06 0.07 0.10 0.14 0.13 0.11 0.10 0.08 0.10 0.09 0.08 0.08 0.08 0.07 0.07 0.09 0.11 0.13 0.15 0.15 0.13 0.12 0.11 0.10 0.09 0.10 0.09 0.09 0.09 0.09
0.05 0.05 0.03 0.02 0.02 0.02 0.04 0.05 0.06 0.07 0.06 0.06 0.09 0.09 0.07 0.07 0.12 0.19 0.25 0.20 0.13 0.08 0.07 0.08 0.08 0.08 0.07 0.07 0.07 0.09 0.09 0.09 0.10 0.10 0.08 0.07 0.07 0.06 0.06 0.06 0.06 0.06 0.07 0.07
0.05 0.05 0.04 0.03 0.02 0.02 0.03 0.04 0.04 0.05 0.07 0.10 0.05 0.05 0.05 0.05 0.07 0.12 0.19 0.17 0.10 0.05 0.05 0.06 0.06 0.07 0.07 0.07 0.08 0.09 0.09 0.09 0.09 0.09 0.08 0.07 0.07 0.06 0.06 0.06 0.06 0.06 0.06 0.06
0.04 0.04 0.04 0.04 0.02 0.03 0.05 0.05 0.06 0.07 0.06 0.08 0.07 0.05 0.05 0.04 0.04 0.05 0.11 0.13 0.08 0.06 0.04 0.04 0.04 0.04 0.05 0.06 0.07 0.08 0.08 0.09 0.09 0.08 0.07 0.06 0.05 0.05 0.05 0.06 0.05 0.03 0.03 0.03
0.02 0.02 0.03 0.05 0.05 0.05 0.05 0.06 0.08 0.10 0.09 0.08 0.07 0.05 0.04 0.04 0.04 0.04 0.05 0.06 0.05 0.05 0.04 0.04 0.03 0.03 0.03 0.04 0.05 0.05 0.06 0.07 0.07 0.06 0.05 0.04 0.05 0.05 0.04 0.03 0.02 0.02 0.01 0.01
0.01 0.02 0.04 0.05 0.07 0.08 0.06 0.08 0.09 0.11 0.10 0.07 0.06 0.06 0.05 0.04 0.04 0.03 0.03 0.04 0.03 0.03 0.03 0.03 0.02 0.02 0.02 0.02 0.03 0.03 0.04 0.04 0.03 0.03 0.03 0.02 0.02 0.02 0.01 0.01 0.01 0.01 0.00 0.00
0.01 0.02 0.04 0.05 0.07 0.09 0.10 0.11 0.09 0.09 0.10 0.09 0.08 0.07 0.07 0.07 0.07 0.05 0.04 0.03 0.03 0.03 0.02 0.02 0.02 0.02 0.02 0.01 0.01 0.01 0.01 0.01 0.01 0.01 0.01 0.01 0.01 0.01 0.01 0.00 0.00 0.00 0.00 0.00
0.02 0.02 0.04 0.05 0.08 0.09 0.09 0.11 0.09 0.08 0.08 0.07 0.07 0.08 0.07 0.06 0.06 0.06 0.05 0.04 0.03 0.03 0.02 0.02 0.02 0.01 0.01 0.01 0.01 0.01 0.01 0.01 0.01 0.01 0.00 0.00 0.00 0.00 0.00 0.00 0.00 0.00 0.00 0.00
0.02 0.03 0.03 0.04 0.05 0.07 0.07 0.07 0.06 0.06 0.06 0.07 0.07 0.06 0.07 0.06 0.05 0.04 0.03 0.03 0.02 0.02 0.01 0.01 0.01 0.01 0.00 0.00 0.00 0.00 0.00 0.01 0.01 0.00 0.00 0.00 0.00 0.00 0.00 0.00 0.00 0.00 0.00 0.00
0.02 0.02 0.02 0.02 0.03 0.04 0.05 0.05 0.05 0.04 0.05 0.05 0.06 0.06 0.06 0.04 0.03 0.03 0.02 0.01 0.01 0.01 0.01 0.01 0.01 0.01 0.00 0.00 0.00 0.00 0.00 0.00 0.00 0.00 0.00 0.00 0.00 0.00 0.00 0.00 0.00 0.00 0.00 0.00
0.02 0.02 0.02 0.03 0.03 0.05 0.05 0.04 0.04 0.03 0.03 0.03 0.04 0.04 0.05 0.05 0.03 0.02 0.01 0.01 0.01 0.01 0.00 0.00 0.00 0.00 0.00 0.00 0.00 0.00 0.00 0.00 0.00 0.00 0.00 0.00 0.00 0.00 0.00 0.00 0.00 0.00 0.00 0.00
0.03 0.02 0.03 0.04 0.04 0.04 0.04 0.04 0.03 0.03 0.03 0.03 0.04 0.04 0.04 0.05 0.04 0.03 0.02 0.01 0.01 0.00 0.00 0.00 0.00 0.00 0.00 0.00 0.00 0.00 0.00 0.00 0.00 0.00 0.00 0.00 0.00 0.00 0.00 0.00 0.00 0.00 0.00 0.00
0.02 0.02 0.02 0.04 0.04 0.04 0.03 0.03 0.03 0.03 0.02 0.02 0.02 0.02 0.02 0.02 0.03 0.03 0.02 0.02 0.01 0.01 0.01 0.00 0.00 0.00 0.00 0.00 0.00 0.00 0.00 0.00 0.00 0.00 0.00 0.00 0.00 0.00 0.00 0.00 0.00 0.00 0.00 0.00
0.03 0.04 0.05 0.05 0.05 0.05 0.04 0.03 0.02 0.02 0.01 0.01 0.01 0.01 0.01 0.01 0.01 0.02 0.01 0.01 0.01 0.00 0.00 0.00 0.00 0.00 0.00 0.00 0.00 0.00 0.00 0.00 0.00 0.00 0.00 0.00 0.00 0.00 0.00 0.00 0.00 0.00 0.00 0.00
0.04 0.05 0.05 0.05 0.05 0.04 0.03 0.02 0.01 0.01 0.01 0.01 0.01 0.01 0.01 0.01 0.01 0.01 0.01 0.00 0.00 0.00 0.00 0.00 0.00 0.00 0.00 0.00 0.00 0.00 0.00 0.00 0.00 0.00 0.00 0.00 0.00 0.00 0.00 0.00 0.00 0.00 0.00 0.00
0.03 0.03 0.02 0.02 0.02 0.02 0.02 0.01 0.01 0.01 0.01 0.01 0.01 0.01 0.01 0.01 0.01 0.00 0.00 0.00 0.00 0.00 0.00 0.00 0.00 0.00 0.00 0.00 0.00 0.00 0.00 0.00 0.00 0.00 0.00 0.00 0.00 0.00 0.00 0.00 0.00 0.00 0.00 0.00
0.02 0.02 0.02 0.02 0.02 0.02 0.01 0.01 0.01 0.01 0.01 0.02 0.01 0.01 0.01 0.01 0.00 0.00 0.00 0.00 0.00 0.00 0.00 0.00 0.00 0.00 0.00 0.00 0.00 0.00 0.00 0.00 0.00 0.00 0.00 0.00 0.00 0.00 0.00 0.01 0.01 0.01 0.01 0.00
0.03 0.03 0.02 0.02 0.02 0.02 0.02 0.01 0.01 0.01 0.01 0.01 0.01 0.01 0.01 0.00 0.00 0.00 0.00 0.00 0.00 0.00 0.00 0.00 0.00 0.00 0.00 0.00 0.00 0.00 0.00 0.00 0.00 0.00 0.00 0.00 0.00 0.00 0.00 0.01 0.01 0.01 0.01 0.01
0.04 0.03 0.02 0.02 0.02 0.01 0.01 0.01 0.00 0.00 0.00 0.00 0.00 0.00 0.00 0.00 0.00 0.00 0.00 0.00 0.00 0.00 0.00 0.00 0.00 0.00 0.00 0.00 0.00 0.00 0.00 0.00 0.00 0.00 0.00 0.00 0.00 0.00 0.00 0.01 0.01 0.01 0.01 0.01
MSLP
1008.02 1008.71 1009.34 1009.89 1010.34 1010.66 1010.86 1010.91 1010.82 1010.58 1010.24 1009.83 1009.39 1008.97 1008.62 1008.37 1008.23 1008.20 1008.27 1008.42 1008.63 1008.86 1009.12 1009.39 1009.67 1009.97 1010.29 1010.64 1011.00 1011.37 1011.74 1012.07 1012.37 1012.62 1012.83 1013.01 1013.18 1013.35 1013.54 1013.77 1014.02 1014.31 1014.61 1014.90
1008.31 1008.97 1009.50 1009.90 1010.14 1010.25 1010.22 1010.08 1009.86 1009.57 1009.26 1008.94 1008.66 1008.43 1008.27 1008.18 1008.16 1008.20 1008.28 1008.41 1008.57 1008.76 1008.98 1009.24 1009.54 1009.89 1010.27 1010.68 1011.10 1011.49 1011.85 1012.15 1012.38 1012.55 1012.68 1012.77 1012.87 1013.00 1013.18 1013.40 1013.69 1014.01 1014.35 1014.69
1008.63 1009.23 1009.66 1009.92 1010.01 1009.93 1009.74 1009.47 1009.15 1008.84 1008.56 1008.34 1008.19 1008.11 1008.09 1008.12 1008.17 1008.25 1008.32 1008.41 1008.50 1008.62 1008.79 1009.01 1009.31 1009.66 1010.08 1010.52 1010.97 1011.38 1011.73 1012.00 1012.19 1012.31 1012.38 1012.44 1012.51 1012.64 1012.83 1013.10 1013.43 1013.82 1014.22 1014.61
1009.01 1009.53 1009.88 1010.03 1009.99 1009.80 1009.50 1009.14 1008.78 1008.46 1008.21 1008.06 1008.01 1008.04 1008.12 1008.22 1008.32 1008.39 1008.43 1008.45 1008.46 1008.49 1008.58 1008.73 1008.98 1009.31 1009.71 1010.15 1010.60 1011.00 1011.35 1011.61 1011.78 1011.90 1011.97 1012.03 1012.14 1012.31 1012.57 1012.91 1013.32 1013.78 1014.25 1014.69
1009.46 1009.91 1010.18 1010.26 1010.14 1009.88 1009.51 1009.11 1008.73 1008.42 1008.21 1008.12 1008.13 1008.23 1008.36 1008.50 1008.60 1008.65 1008.63 1008.57 1008.48 1008.41 1008.39 1008.45 1008.61 1008.87 1009.22 1009.62 1010.03 1010.43 1010.76 1011.03 1011.23 1011.37 1011.49 1011.63 1011.82 1012.09 1012.44 1012.88 1013.39 1013.93 1014.46 1014.95
1009.98 1010.36 1010.57 1010.59 1010.43 1010.13 1009.74 1009.32 1008.94 1008.65 1008.46 1008.40 1008.46 1008.59 1008.74 1008.89 1008.98 1008.99 1008.91 1008.77 1008.58 1008.40 1008.27 1008.22 1008.27 1008.43 1008.69 1009.02 1009.39 1009.76 1010.10 1010.39 1010.64 1010.86 1011.07 1011.32 1011.63 1012.02 1012.50 1013.05 1013.65 1014.26 1014.85 1015.36
1010.54 1010.85 1011.01 1010.99 1010.80 1010.49 1010.09 1009.67 1009.30 1009.01 1008.84 1008.80 1008.87 1009.01 1009.17 1009.31 1009.38 1009.36 1009.24 1009.03 1008.77 1008.49 1008.26 1008.09 1008.03 1008.09 1008.25 1008.50 1008.81 1009.15 1009.50 1009.83 1010.15 1010.47 1010.81 1011.20 1011.65 1012.17 1012.77 1013.42 1014.10 1014.76 1015.38 1015.90
1011.09 1011.34 1011.44 1011.38 1011.18 1010.85 1010.45 1010.03 1009.66 1009.37 1009.20 1009.16 1009.23 1009.36 1009.53 1009.66 1009.73 1009.70 1009.57 1009.33 1009.03 1008.70 1008.39 1008.14 1007.98 1007.94 1008.01 1008.18 1008.44 1008.76 1009.12 1009.50 1009.90 1010.34 1010.80 1011.33 1011.91 1012.56 1013.25 1013.98 1014.70 1015.39 1016.00 1016.52
1011.58 1011.76 1011.81 1011.71 1011.47 1011.12 1010.70 1010.28 1009.90 1009.60 1009.42 1009.37 1009.43 1009.56 1009.73 1009.88 1009.98 1009.98 1009.87 1009.65 1009.36 1009.02 1008.69 1008.39 1008.18 1008.06 1008.06 1008.18 1008.40 1008.70 1009.07 1009.50 1009.98 1010.51 1011.10 1011.74 1012.43 1013.16 1013.92 1014.68 1015.41 1016.09 1016.67 1017.15
1012.00 1012.10 1012.08 1011.92 1011.63 1011.25 1010.80 1010.35 1009.95 1009.64 1009.44 1009.37 1009.42 1009.57 1009.76 1009.95 1010.10 1010.17 1010.14 1010.00 1009.77 1009.49 1009.18 1008.90 1008.66 1008.52 1008.48 1008.55 1008.74 1009.03 1009.41 1009.88 1010.42 1011.02 1011.68 1012.40 1013.15 1013.93 1014.71 1015.46 1016.17 1016.80 1017.33 1017.75
1012.32 1012.34 1012.23 1012.01 1011.66 1011.23 1010.74 1010.26 1009.83 1009.49 1009.28 1009.20 1009.26 1009.42 1009.65 1009.91 1010.14 1010.32 1010.40 1010.39 1010.28 1010.10 1009.87 1009.64 1009.44 1009.30 1009.25 1009.30 1009.46 1009.74 1010.12 1010.60 1011.17 1011.81 1012.51 1013.25 1014.02 1014.80 1015.55 1016.26 1016.91 1017.47 1017.94 1018.30
1012.56 1012.50 1012.31 1012.01 1011.60 1011.12 1010.60 1010.08 1009.63 1009.27 1009.04 1008.96 1009.03 1009.23 1009.52 1009.86 1010.20 1010.50 1010.73 1010.87 1010.91 1010.86 1010.75 1010.61 1010.46 1010.35 1010.31 1010.35 1010.50 1010.76 1011.12 1011.59 1012.15 1012.78 1013.48 1014.21 1014.95 1015.68 1016.38 1017.02 1017.60 1018.09 1018.48 1018.79
1012.78 1012.63 1012.38 1012.01 1011.55 1011.03 1010.48 1009.95 1009.48 1009.11 1008.89 1008.82 1008.91 1009.15 1009.50 1009.93 1010.38 1010.81 1011.19 1011.48 1011.67 1011.76 1011.77 1011.72 1011.65 1011.58 1011.55 1011.59 1011.71 1011.94 1012.27 1012.71 1013.23 1013.83 1014.48 1015.16 1015.85 1016.52 1017.15 1017.72 1018.22 1018.64 1018.98 1019.26
1013.00 1012.80 1012.49 1012.08 1011.60 1011.06 1010.51 1009.98 1009.53 1009.18 1008.97 1008.93 1009.05 1009.33 1009.74 1010.23 1010.78 1011.31 1011.81 1012.23 1012.54 1012.76 1012.87 1012.90 1012.89 1012.85 1012.83 1012.86 1012.96 1013.15 1013.44 1013.82 1014.29 1014.84 1015.43 1016.06 1016.68 1017.28 1017.84 1018.35 1018.79 1019.16 1019.47 1019.73
1013.25 1013.03 1012.70 1012.29 1011.82 1011.30 1010.78 1010.30 1009.88 1009.57 1009.40 1009.39 1009.55 1009.86 1010.30 1010.84 1011.44 1012.04 1012.61 1013.10 1013.50 1013.79 1013.97 1014.06 1014.07 1014.06 1014.03 1014.04 1014.11 1014.26 1014.50 1014.84 1015.26 1015.74 1016.28 1016.85 1017.42 1017.97 1018.47 1018.93 1019.34 1019.68 1019.98 1020.24
1013.55 1013.34 1013.04 1012.66 1012.24 1011.79 1011.34 1010.93 1010.58 1010.33 1010.21 1010.24 1010.42 1010.75 1011.20 1011.75 1012.35 1012.96 1013.54 1014.06 1014.48 1014.78 1014.98 1015.08 1015.11 1015.09 1015.05 1015.04 1015.08 1015.20 1015.40 1015.70 1016.08 1016.53 1017.03 1017.56 1018.09 1018.60 1019.08 1019.51 1019.90 1020.24 1020.54 1020.82
1013.87 1013.70 1013.46 1013.17 1012.83 1012.48 1012.14 1011.83 1011.57 1011.40 1011.34 1011.41 1011.61 1011.93 1012.36 1012.87 1013.43 1014.00 1014.54 1015.01 1015.39 1015.67 1015.85 1015.93 1015.94 1015.90 1015.85 1015.82 1015.85 1015.95 1016.13 1016.41 1016.77 1017.21 1017.69 1018.20 1018.72 1019.22 1019.69 1020.12 1020.51 1020.86 1021.17 1021.46
1014.16 1014.07 1013.93 1013.74 1013.53 1013.30 1013.08 1012.89 1012.74 1012.66 1012.66 1012.76 1012.96 1013.26 1013.65 1014.09 1014.57 1015.05 1015.50 1015.88 1016.19 1016.40 1016.53 1016.56 1016.54 1016.49 1016.43 1016.40 1016.43 1016.53 1016.73 1017.02 1017.39 1017.83 1018.32 1018.84 1019.37 1019.87 1020.35 1020.78 1021.18 1021.53 1021.86 1022.15
1014.38 1014.39 1014.36 1014.29 1014.21 1014.13 1014.04 1013.97 1013.93 1013.93 1013.99 1014.11 1014.31 1014.57 1014.89 1015.25 1015.62 1015.99 1016.33 1016.61 1016.82 1016.95 1017.01 1017.01 1016.97 1016.90 1016.85 1016.84 1016.90 1017.04 1017.27 1017.59 1018.00 1018.47 1018.98 1019.52 1020.06 1020.58 1021.06 1021.50 1021.89 1022.25 1022.57 1022.86
1014.50 1014.60 1014.68 1014.74 1014.79 1014.83 1014.86 1014.91 1014.97 1015.04 1015.15 1015.30 1015.48 1015.70 1015.96 1016.23 1016.50 1016.76 1016.98 1017.16 1017.29 1017.35 1017.36 1017.34 1017.29 1017.24 1017.22 1017.26 1017.37 1017.56 1017.84 1018.21 1018.66 1019.16 1019.71 1020.26 1020.81 1021.33 1021.81 1022.25 1022.63 1022.97 1023.28 1023.55
1014.50 1014.69 1014.86 1015.03 1015.18 1015.33 1015.47 1015.61 1015.75 1015.89 1016.04 1016.20 1016.38 1016.57 1016.76 1016.96 1017.15 1017.32 1017.46 1017.57 1017.63 1017.66 1017.65 1017.63 1017.60 1017.60 1017.63 1017.73 1017.90 1018.16 1018.50 1018.92 1019.40 1019.94 1020.49 1021.05 1021.60 1022.11 1022.57 1022.98 1023.35 1023.66 1023.94 1024.18
1014.41 1014.66 1014.91 1015.15 1015.39 1015.62 1015.84 1016.05 1016.24 1016.43 1016.62 1016.79 1016.96 1017.13 1017.30 1017.45 1017.59 1017.71 1017.81 1017.88 1017.93 1017.95 1017.96 1017.97 1018.00 1018.05 1018.16 1018.32 1018.56 1018.88 1019.27 1019.72 1020.22 1020.76 1021.32 1021.86 1022.38 1022.86 1023.29 1023.67 1024.00 1024.28 1024.52 1024.73
1014.28 1014.58 1014.87 1015.16 1015.45 1015.73 1015.99 1016.25 1016.49 1016.71 1016.92 1017.11 1017.29 1017.46 1017.62 1017.76 1017.89 1018.01 1018.10 1018.18 1018.25 1018.31 1018.36 1018.43 1018.52 1018.65 1018.82 1019.06 1019.35 1019.71 1020.12 1020.58 1021.08 1021.60 1022.12 1022.62 1023.10 1023.53 1023.91 1024.25 1024.54 1024.79 1025.00 1025.18
1014.17 1014.49 1014.81 1015.13 1015.44 1015.74 1016.03 1016.31 1016.58 1016.82 1017.06 1017.27 1017.47 1017.66 1017.83 1018.00 1018.15 1018.29 1018.42 1018.54 1018.66 1018.77 1018.90 1019.03 1019.19 1019.39 1019.62 1019.90 1020.23 1020.60 1021.01 1021.45 1021.91 1022.38 1022.84 1023.28 1023.69 1024.07 1024.40 1024.70 1024.95 1025.17 1025.36 1025.52
1014.16 1014.49 1014.82 1015.14 1015.46 1015.77 1016.07 1016.36 1016.64 1016.91 1017.16 1017.41 1017.64 1017.86 1018.06 1018.27 1018.46 1018.65 1018.83 1019.01 1019.18 1019.37 1019.56 1019.76 1019.98 1020.22 1020.49 1020.79 1021.12 1021.47 1021.85 1022.24 1022.64 1023.03 1023.42 1023.78 1024.13 1024.44 1024.73 1024.98 1025.21 1025.42 1025.60 1025.76
1014.29 1014.62 1014.96 1015.28 1015.60 1015.91 1016.22 1016.52 1016.81 1017.10 1017.37 1017.64 1017.90 1018.16 1018.41 1018.65 1018.90 1019.13 1019.37 1019.61 1019.84 1020.07 1020.31 1020.56 1020.82 1021.08 1021.36 1021.65 1021.95 1022.26 1022.57 1022.89 1023.21 1023.52 1023.82 1024.11 1024.38 1024.64 1024.88 1025.11 1025.33 1025.53 1025.71 1025.88
1014.58 1014.92 1015.26 1015.59 1015.91 1016.23 1016.55 1016.86 1017.16 1017.46 1017.76 1018.05 1018.34 1018.64 1018.92 1019.20 1019.49 1019.76 1020.04 1020.31 1020.58 1020.85 1021.11 1021.37 1021.63 1021.89 1022.14 1022.40 1022.65 1022.89 1023.14 1023.37 1023.60 1023.83 1024.05 1024.26 1024.48 1024.69 1024.90 1025.11 1025.31 1025.51 1025.70 1025.88
Thickness
5740 5750 5752 5751 5751 5751 5743 5735 5726 5731 5736 5745 5751 5753 5754 5754 5754 5752 5749 5748 5748 5747 5746 5744 5744 5743 5742 5741 5740 5739 5736 5734 5732 5731 5730 5728 5726 5725 5724 5723 5722 5720 5717 5716
5730 5743 5745 5742 5746 5748 5745 5742 5737 5736 5734 5748 5751 5752 5749 5749 5749 5746 5745 5746 5746 5745 5743 5740 5740 5740 5739 5738 5737 5735 5732 5730 5730 5728 5727 5725 5724 5722 5720 5719 5718 5716 5714 5712
5707 5726 5730 5717 5731 5735 5733 5735 5734 5725 5729 5740 5739 5740 5738 5740 5742 5741 5741 5743 5742 5742 5741 5739 5738 5738 5736 5734 5733 5730 5727 5726 5725 5724 5723 5721 5720 5718 5716 5715 5714 5711 5709 5707
5695 5704 5693 5709 5733 5734 5726 5722 5727 5727 5730 5732 5731 5731 5732 5733 5732 5733 5735 5735 5736 5736 5735 5735 5736 5734 5732 5730 5728 5726 5723 5721 5720 5719 5718 5716 5714 5713 5712 5711 5708 5705 5702 5700
5679 5680 5690 5709 5720 5721 5712 5704 5716 5717 5720 5723 5725 5724 5720 5725 5726 5726 5727 5728 5729 5729 5729 5730 5730 5729 5727 5724 5723 5721 5718 5716 5715 5714 5713 5711 5709 5707 5706 5703 5700 5697 5695 5692
5676 5674 5670 5691 5712 5722 5712 5690 5707 5710 5710 5712 5714 5703 5705 5714 5718 5719 5719 5721 5722 5722 5722 5721 5722 5722 5720 5717 5715 5714 5713 5712 5711 5710 5709 5706 5704 5701 5698 5694 5690 5689 5685 5683
5670 5668 5674 5690 5706 5712 5686 5684 5699 5702 5704 5704 5701 5699 5701 5706 5707 5708 5709 5712 5713 5712 5711 5711 5713 5714 5712 5710 5709 5709 5709 5707 5705 5704 5702 5700 5697 5693 5690 5686 5683 5679 5676 5673
5662 5657 5662 5686 5691 5683 5679 5688 5691 5693 5695 5695 5693 5693 5693 5694 5694 5695 5696 5700 5702 5700 5699 5701 5704 5705 5703 5702 5703 5703 5701 5699 5697 5696 5695 5692 5688 5684 5681 5678 5673 5668 5665 5661
5659 5657 5666 5674 5675 5677 5678 5678 5682 5683 5685 5687 5686 5683 5683 5683 5684 5683 5684 5686 5687 5688 5688 5689 5691 5694 5693 5693 5694 5693 5690 5688 5685 5684 5682 5681 5678 5674 5670 5667 5662 5657 5653 5649
5653 5655 5660 5664 5667 5670 5672 5674 5676 5676 5677 5677 5677 5676 5675 5674 5673 5673 5673 5673 5674 5676 5676 5676 5678 5680 5682 5683 5684 5683 5678 5675 5673 5671 5668 5666 5664 5662 5658 5653 5649 5645 5641 5637
5645 5648 5652 5655 5657 5660 5663 5666 5667 5667 5667 5668 5668 5666 5665 5663 5662 5662 5662 5661 5662 5663 5663 5663 5665 5667 5669 5670 5672 5670 5667 5663 5660 5657 5654 5650 5647 5643 5642 5639 5637 5633 5628 5625
5639 5643 5642 5644 5648 5652 5653 5654 5657 5657 5656 5656 5657 5655 5653 5652 5651 5651 5650 5649 5649 5650 5650 5650 5652 5653 5655 5657 5659 5657 5653 5650 5648 5644 5640 5638 5634 5628 5625 5624 5621 5619 5616 5613
5640 5640 5639 5639 5640 5642 5643 5644 5647 5647 5646 5645 5644 5644 5642 5640 5638 5638 5638 5637 5638 5638 5638 5639 5640 5640 5641 5643 5645 5645 5642 5639 5636 5633 5629 5626 5623 5619 5612 5608 5606 5604 5601 5599
5636 5634 5630 5631 5631 5633 5634 5635 5637 5636 5634 5634 5632 5631 5630 5628 5626 5625 5625 5625 5626 5626 5626 5627 5628 5628 5629 5631 5632 5632 5630 5628 5625 5622 5619 5615 5611 5606 5602 5598 5593 5588 5586 5584
5628 5628 5625 5624 5623 5623 5624 5625 5625 5622 5622 5621 5621 5620 5618 5617 5614 5613 5613 5615 5615 5615 5615 5615 5615 5615 5618 5620 5620 5619 5618 5616 5614 5610 5607 5602 5598 5594 5589 5584 5579 5574 5571 5569
5620 5619 5618 5616 5615 5614 5615 5615 5614 5612 5611 5610 5609 5608 5607 5606 5604 5603 5602 5603 5603 5602 5602 5604 5604 5605 5607 5608 5608 5607 5606 5605 5603 5599 5594 5590 5585 5580 5575 5570 5565 5560 5556 5553
5614 5611 5610 5609 5608 5607 5607 5608 5606 5605 5604 5602 5601 5599 5598 5596 5594 5592 5592 5592 5593 5593 5593 5594 5594 5595 5597 5598 5597 5595 5594 5592 5590 5586 5581 5577 5572 5567 5562 5556 5551 5546 5542 5539
5614 5612 5610 5608 5605 5603 5602 5601 5600 5598 5597 5595 5594 5592 5590 5587 5585 5584 5583 5584 5584 5584 5584 5585 5586 5587 5587 5587 5586 5585 5583 5580 5576 5572 5568 5564 5559 5554 5548 5543 5538 5533 5528 5525
5609 5607 5606 5604 5603 5601 5599 5596 5594 5593 5591 5590 5587 5585 5582 5580 5578 5577 5577 5576 5575 5574 5573 5576 5578 5578 5577 5577 5577 5574 5571 5568 5564 5559 5555 5551 5546 5540 5534 5529 5524 5519 5515 5510
5604 5603 5602 5600 5599 5597 5595 5593 5591 5588 5586 5584 5581 5578 5575 5573 5572 5571 5570 5567 5566 5566 5567 5568 5569 5568 5567 5567 5566 5563 5559 5555 5550 5546 5541 5536 5531 5525 5520 5516 5511 5506 5501 5496
5600 5599 5598 5595 5594 5593 5591 5589 5587 5583 5581 5579 5576 5572 5569 5567 5566 5564 5562 5559 5558 5560 5560 5560 5558 5557 5557 5556 5554 5551 5547 5542 5538 5533 5528 5522 5517 5512 5507 5502 5498 5493 5488 5483
5596 5596 5594 5592 5590 5587 5586 5584 5582 5579 5576 5574 5571 5568 5565 5562 5559 5557 5554 5552 5552 5553 5552 5550 5549 5549 5548 5546 5543 5539 5535 5531 5525 5520 5514 5509 5504 5498 5494 5489 5485 5480 5475 5470
5592 5591 5589 5588 5585 5583 5581 5579 5577 5575 5572 5569 5566 5563 5560 5557 5554 5551 5546 5545 5545 5545 5543 5541 5541 5540 5538 5534 5531 5527 5523 5518 5513 5507 5502 5497 5492 5487 5482 5477 5473 5468 5463 5459
5586 5585 5583 5582 5581 5578 5574 5572 5571 5569 5567 5564 5561 5559 5556 5551 5547 5545 5543 5541 5539 5537 5534 5532 5532 5529 5526 5522 5518 5514 5509 5505 5500 5495 5490 5486 5481 5476 5471 5467 5462 5458 5454 5450
5582 5580 5578 5576 5574 5571 5569 5567 5565 5562 5560 5557 5554 5552 5550 5547 5543 5539 5536 5534 5531 5529 5525 5523 5521 5517 5513 5509 5505 5501 5497 5493 5488 5484 5479 5475 5470 5466 5462 5457 5453 5449 5444 5441
5577 5575 5573 5572 5570 5568 5565 5563 5559 5556 5554 5550 5547 5545 5542 5539 5536 5533 5529 5526 5523 5520 5516 5512 5509 5505 5501 5497 5493 5489 5485 5481 5477 5473 5470 5465 5461 5457 5453 5448 5445 5440 5437 5433
5572 5570 5568 5565 5564 5563 5561 5557 5554 5550 5548 5545 5540 5537 5535 5531 5528 5525 5521 5517 5513 5509 5505 5502 5498 5495 5491 5486 5482 5478 5475 5471 5467 5464 5460 5456 5452 5448 5444 5441 5437 5433 5430 5426